TimeEST,TemperatureF,Dew PointF,Humidity,Sea Level PressureIn,VisibilityMPH,Wind Direction,Wind SpeedMPH,Gust SpeedMPH,PrecipitationIn,Events,Conditions,WindDirDegrees,DateUTC
12:15 AM,36.5,36.5,100,30.29,2.0,North,3.5,-,N/A,,Overcast,10,2013-12-09 05:15:00
12:35 AM,36.3,36.3,100,30.28,2.5,Calm,Calm,-,N/A,,Overcast,0,2013-12-09 05:35:00
12:55 AM,36.5,36.5,100,30.27,2.5,Calm,Calm,-,N/A,,Overcast,0,2013-12-09 05:55:00
1:15 AM,36.5,36.5,100,30.25,3.0,Calm,Calm,-,N/A,,Overcast,0,2013-12-09 06:15:00
1:35 AM,36.5,36.5,100,30.25,5.0,Calm,Calm,-,N/A,,Overcast,0,2013-12-09 06:35:00
1:55 AM,36.5,36.5,100,30.25,7.0,Calm,Calm,-,N/A,,Overcast,0,2013-12-09 06:55:00
2:15 AM,36.5,36.5,100,30.24,7.0,Calm,Calm,-,N/A,,Overcast,0,2013-12-09 07:15:00
2:35 AM,36.7,36.7,100,30.25,10.0,Calm,Calm,-,N/A,,Overcast,0,2013-12-09 07:35:00
2:55 AM,36.7,36.7,100,30.25,5.0,Calm,Calm,-,N/A,,Overcast,0,2013-12-09 07:55:00
3:15 AM,36.5,36.5,100,30.25,2.5,Calm,Calm,-,N/A,,Overcast,0,2013-12-09 08:15:00
3:35 AM,36.7,36.7,100,30.24,1.2,Calm,Calm,-,N/A,,Overcast,0,2013-12-09 08:35:00
3:55 AM,36.7,36.7,100,30.25,0.8,Calm,Calm,-,N/A,,Overcast,0,2013-12-09 08:55:00
4:15 AM,36.7,36.7,100,30.23,1.0,Calm,Calm,-,N/A,,Overcast,0,2013-12-09 09:15:00
4:35 AM,36.5,36.5,100,30.22,0.8,Calm,Calm,-,N/A,,Overcast,0,2013-12-09 09:35:00
4:55 AM,36.7,36.7,100,30.21,0.8,Calm,Calm,-,N/A,,Overcast,0,2013-12-09 09:55:00
5:35 AM,36.9,36.9,100,30.19,0.5,Calm,Calm,-,N/A,Fog,Fog,0,2013-12-09 10:35:00
5:55 AM,37.2,37.2,100,30.21,0.8,Calm,Calm,-,N/A,,Overcast,0,2013-12-09 10:55:00
6:15 AM,37.4,37.4,100,30.20,0.5,Calm,Calm,-,N/A,Fog,Fog,0,2013-12-09 11:15:00
6:35 AM,37.6,37.6,100,30.21,0.8,Calm,Calm,-,N/A,,Overcast,0,2013-12-09 11:35:00
6:55 AM,37.6,37.6,100,30.21,1.2,Calm,Calm,-,N/A,,Overcast,0,2013-12-09 11:55:00
7:15 AM,37.6,37.6,100,30.22,1.0,Calm,Calm,-,N/A,,Overcast,0,2013-12-09 12:15:00
7:35 AM,37.6,37.6,100,30.21,1.0,Calm,Calm,-,N/A,,Overcast,0,2013-12-09 12:35:00
7:55 AM,37.8,37.8,100,30.20,1.2,Calm,Calm,-,N/A,,Overcast,0,2013-12-09 12:55:00
8:15 AM,37.6,37.6,100,30.20,1.8,Calm,Calm,-,N/A,,Overcast,0,2013-12-09 13:15:00
8:35 AM,38.3,38.3,100,30.20,1.8,Calm,Calm,-,N/A,,Overcast,0,2013-12-09 13:35:00
8:55 AM,38.7,38.7,100,30.19,1.2,SSE,3.5,-,N/A,,Overcast,160,2013-12-09 13:55:00
9:15 AM,39.0,39.0,100,30.19,1.0,SSE,3.5,-,N/A,,Overcast,160,2013-12-09 14:15:00
9:35 AM,39.9,39.9,100,30.18,1.0,South,3.5,-,N/A,,Overcast,170,2013-12-09 14:35:00
9:55 AM,40.1,40.1,100,30.20,1.0,SW,4.6,-,N/A,,Overcast,220,2013-12-09 14:55:00
10:15 AM,40.1,40.1,100,30.21,1.0,Calm,Calm,-,N/A,,Overcast,0,2013-12-09 15:15:00
10:35 AM,40.3,40.3,100,30.20,0.8,Calm,Calm,-,N/A,,Overcast,0,2013-12-09 15:35:00
10:55 AM,40.3,40.3,100,30.19,0.5,Calm,Calm,-,N/A,Fog,Fog,0,2013-12-09 15:55:00
11:15 AM,40.5,40.5,100,30.19,0.5,Calm,Calm,-,N/A,,Drizzle,0,2013-12-09 16:15:00
11:35 AM,40.8,40.8,100,30.18,0.8,Calm,Calm,-,0.01,,Overcast,0,2013-12-09 16:35:00
11:55 AM,41.4,41.4,100,30.16,0.8,Calm,Calm,-,0.01,,Overcast,0,2013-12-09 16:55:00
12:15 PM,41.9,41.9,100,30.15,1.2,Calm,Calm,-,N/A,,Overcast,0,2013-12-09 17:15:00
12:35 PM,42.3,42.3,100,30.12,1.2,SSE,3.5,-,N/A,,Overcast,160,2013-12-09 17:35:00
12:55 PM,42.8,42.8,100,30.13,1.2,SSW,4.6,-,N/A,,Overcast,200,2013-12-09 17:55:00
1:15 PM,43.5,43.5,100,30.12,1.0,Calm,Calm,-,N/A,,Overcast,0,2013-12-09 18:15:00
1:35 PM,44.1,44.1,100,30.12,0.8,Calm,Calm,-,N/A,,Overcast,0,2013-12-09 18:35:00
1:55 PM,44.6,44.6,100,30.12,0.5,Calm,Calm,-,N/A,Fog,Fog,0,2013-12-09 18:55:00
2:15 PM,45.0,45.0,100,30.11,0.5,Calm,Calm,-,N/A,Fog,Fog,0,2013-12-09 19:15:00
2:35 PM,45.3,45.3,100,30.11,0.5,Calm,Calm,-,N/A,Fog,Fog,0,2013-12-09 19:35:00
2:55 PM,45.9,45.9,100,30.10,0.5,Calm,Calm,-,N/A,Fog,Fog,0,2013-12-09 19:55:00
3:15 PM,46.4,46.4,100,30.10,0.5,Calm,Calm,-,N/A,Fog,Fog,0,2013-12-09 20:15:00
3:35 PM,46.8,46.8,100,30.10,0.5,Calm,Calm,-,N/A,Fog,Fog,0,2013-12-09 20:35:00
3:55 PM,47.1,47.1,100,30.10,0.5,Calm,Calm,-,N/A,Fog,Fog,0,2013-12-09 20:55:00
4:15 PM,47.3,47.3,100,30.11,0.5,Calm,Calm,-,N/A,Fog,Fog,0,2013-12-09 21:15:00
4:35 PM,47.3,47.3,100,30.11,0.2,Calm,Calm,-,N/A,Fog,Fog,0,2013-12-09 21:35:00
4:55 PM,47.5,47.5,100,30.11,0.2,Calm,Calm,-,N/A,,Light Drizzle,0,2013-12-09 21:55:00
5:15 PM,47.5,47.5,100,30.10,0.5,Calm,Calm,-,N/A,Fog,Fog,0,2013-12-09 22:15:00
5:35 PM,47.7,47.7,100,30.10,0.5,Calm,Calm,-,N/A,Fog,Fog,0,2013-12-09 22:35:00
5:55 PM,47.7,47.7,100,30.11,0.5,Calm,Calm,-,N/A,Fog,Fog,0,2013-12-09 22:55:00
6:15 PM,47.7,47.7,100,30.11,0.5,Calm,Calm,-,N/A,Fog,Fog,0,2013-12-09 23:15:00
6:35 PM,47.7,47.7,100,30.12,0.5,Calm,Calm,-,N/A,Fog,Fog,0,2013-12-09 23:35:00
6:55 PM,47.8,47.8,100,30.12,0.5,Calm,Calm,-,N/A,Fog,Fog,0,2013-12-09 23:55:00
7:15 PM,47.8,47.8,100,30.12,0.5,Calm,Calm,-,N/A,Fog,Fog,0,2013-12-10 00:15:00
7:35 PM,48.0,48.0,100,30.12,0.5,Calm,Calm,-,N/A,Fog,Fog,0,2013-12-10 00:35:00
7:55 PM,48.2,48.2,100,30.12,0.2,Calm,Calm,-,N/A,Fog,Fog,0,2013-12-10 00:55:00
8:15 PM,48.0,48.0,100,30.12,0.2,Calm,Calm,-,N/A,Fog,Fog,0,2013-12-10 01:15:00
8:35 PM,48.0,48.0,100,30.11,0.2,Calm,Calm,-,N/A,Fog,Fog,0,2013-12-10 01:35:00
8:55 PM,48.2,48.2,100,30.10,0.5,Calm,Calm,-,N/A,Fog,Fog,0,2013-12-10 01:55:00
9:15 PM,47.8,47.8,100,30.10,0.8,Calm,Calm,-,N/A,,Overcast,0,2013-12-10 02:15:00
9:35 PM,48.2,48.2,100,30.12,0.8,SSW,3.5,-,N/A,,Drizzle,200,2013-12-10 02:35:00
9:55 PM,48.2,48.2,100,30.11,0.5,Calm,Calm,-,N/A,Fog,Fog,0,2013-12-10 02:55:00
10:15 PM,48.2,48.2,100,30.11,1.0,Calm,Calm,-,N/A,Rain,Light Rain,0,2013-12-10 03:15:00
10:35 PM,48.2,48.2,100,30.11,0.8,Calm,Calm,-,0.01,Rain,Light Rain,0,2013-12-10 03:35:00
10:55 PM,48.4,48.4,100,30.10,1.0,Calm,Calm,-,0.01,,Overcast,0,2013-12-10 03:55:00
11:15 PM,48.6,48.6,100,30.09,1.2,Calm,Calm,-,N/A,Rain,Light Rain,0,2013-12-10 04:15:00
11:35 PM,48.7,48.7,100,30.07,1.8,Calm,Calm,-,0.01,Rain,Light Rain,0,2013-12-10 04:35:00
11:55 PM,48.7,48.7,100,30.08,1.5,Calm,Calm,-,0.01,Rain,Light Rain,0,2013-12-10 04:55:00